Regional Weather Roundup
Issued by NWS Little Rock, AR

Home | Current Version | Previous Version | Graphics & Text | Print | Product List | Glossary On
Versions: 1 2 3 4 5 6 7 8 9 10 11 12 13 14 15 16 17 18 19 20 21 22 23 24 25 26 27 28 29 30 31 32
000
ASUS44 KLZK 211305
RWRLZK

WEATHER ROUNDUP FOR ARKANSAS
NATIONAL WEATHER SERVICE LITTLE ROCK AR
700 AM CST SAT JAN 21 2017

NOTE: "FAIR" INDICATES FEW OR NO CLOUDS BELOW 12,000 FEET WITH NO
SIGNIFICANT WEATHER AND/OR OBSTRUCTIONS TO VISIBILITY.

ARZ001-003-010-029-211400-
NORTHWEST ARKANSAS

CITY           SKY/WX    TMP DP  RH WIND       PRES   REMARKS
FAYETTEVILLE   CLEAR     43  39  86 S5        29.57S
FORT SMITH     CLEAR     41  38  89 E5        29.58R
HARRISON       CLEAR     48  42  80 S7        29.58S
BENTONVILLE    CLEAR    N/A N/A N/A S5        29.56S
ROGERS         CLEAR     47  38  71 S8        29.57R
SILOAM SPGS    CLEAR     48  36  61 S5        29.56S
HIGHFILL       CLEAR     47  37  68 S6        29.56S
SPRINGDALE     CLEAR     48  39  71 S7        29.58S
$$

ARZ004-005-016-211400-
NORTH CENTRAL ARKANSAS

CITY           SKY/WX    TMP DP  RH WIND       PRES   REMARKS
BATESVILLE     CLOUDY    57  52  82 SW5       29.62S
FLIPPIN        PTCLDY    48  39  71 S6        29.56S
MTN HOME       CLOUDY    50  43  77 S5        29.57S
$$

ARZ040-041-211400-
WEST CENTRAL ARKANSAS

CITY           SKY/WX    TMP DP  RH WIND       PRES   REMARKS
MENA           CLEAR     45  43  93 CALM      29.61R
MOUNT IDA      CLEAR     45  43  93 CALM      29.59R
$$

ARZ009-017-025-026-028-211400-
NORTHEAST ARKANSAS

CITY           SKY/WX    TMP DP  RH WIND       PRES   REMARKS
CORNING        CLOUDY    55  54  94 S12       29.62S
JONESBORO      MOCLDY    54  52  93 S5        29.63S
NEWPORT        CLOUDY    51  50  96 MISG      29.63S
WALNUT RIDGE   MOCLDY    54  48  82 S13       29.61F
BLYTHEVILLE    MOCLDY    59  53  80 SW7       29.65S
$$

ARZ022-023-033-042-044-211400-
CENTRAL ARKANSAS

CITY           SKY/WX    TMP DP  RH WIND       PRES   REMARKS
LITTLE ROCK    MOCLDY    51  51 100 CALM      29.62R
N LITTLE ROCK    N/A     55  52  90 SW5       29.62R
JACKSONVILLE   PTCLDY    49  49  99 NE3       29.61R
SEARCY         PTCLDY    51  51 100 CALM      29.65R
HOT SPRINGS    CLEAR     48  48 100 CALM      29.62S
RUSSELLVILLE   CLEAR     50  46  86 SE6       29.59R
$$

ARZ036-211400-
EAST ARKANSAS

CITY           SKY/WX    TMP DP  RH WIND       PRES   REMARKS
WEST MEMPHIS   CLOUDY    57  56  96 S6        29.64F
$$

ARZ050-053-066-070-073-211400-
SOUTHWEST ARKANSAS

CITY           SKY/WX    TMP DP  RH WIND       PRES   REMARKS
ARKADELPHIA    PTSUNNY   47  46  97 CALM      29.63S FOG
CAMDEN         FOG       50  48  93 CALM      29.64R VSB<1/4
TEXARKANA      CLEAR     56  56 100 S8        29.61R
EL DORADO      FOG       50  50 100 CALM      29.63R VSB 1/2
DE QUEEN       CLOUDY    43  43 100 NE5       29.59F
$$

ARZ056-057-069-211400-
SOUTHEAST ARKANSAS

CITY           SKY/WX    TMP DP  RH WIND       PRES   REMARKS
PINE BLUFF     CLEAR     51  50  96 E6        29.62R
STUTTGART      PTCLDY    57  48  72 S8        29.64R
MONTICELLO     PTCLDY    54  53  97 CALM      29.64R

$$






USA.gov is the U.S. government's official web portal to all federal, state and local government web resources and services.